[[{"header":{"parameterUnit":"m.s-1","parameterCategory":1,"la1":30.2991,"la2":30.254,"lo1":-89.0895,"lo2":-89.0444,"dy":0.0017,"dx":0.0017,"nx":28,"ny":28,"refTime":"2024-05-12T21:00:00:Z","depth":0,"parameterNumber":2,"parameterNumberName":"U-component_of_WINDS"},"data":[0,0,0,0,0,0,0,0,0,0,0,0,0,0,0,0,0,0,0,0,0,0,0,0,0,0,0,0,0,0,0,0,0,0,0,0,0,0,0,0,0,0,0,0,0,0,0,0,0,0,0,0,0,0,0,0,0,0,-1.8437,-1.8438,0,-1.8563,-1.8564,-1.8566,-1.8574,-1.8573,-1.8571,-1.857,-1.8704,-1.8708,-1.8713,0,0,0,0,0,0,0,0,0,0,0,0,0,-1.8209,-1.8213,-1.8437,-1.8438,-1.844,-1.8563,-1.8565,-1.8566,-1.8574,-1.8573,-1.8571,-1.8569,-1.8702,-1.8708,-1.8714,0,0,0,0,0,0,0,0,0,0,0,0,0,-1.8319,-1.8214,-1.8436,-1.8459,-1.8462,-1.8562,-1.8565,-1.8567,-1.8575,-1.8572,-1.857,-1.8568,-1.87,-1.8707,-1.8715,-1.8803,0,0,-1.8737,-1.874,0,0,0,0,0,0,0,0,-1.8312,-1.8327,-1.8454,-1.8457,-1.8461,-1.855,-1.8533,-1.8646,-1.8575,-1.8532,-1.857,-1.8567,-1.8655,-1.8666,-1.8694,-1.8809,-1.8815,-1.8738,-1.8742,-1.8745,-1.8747,0,0,0,0,0,0,0,-1.8305,-1.8322,-1.8487,-1.8456,-1.846,-1.8464,-1.8477,-1.8555,-1.8604,-1.8536,-1.8536,-1.8551,-1.8656,-1.8687,-1.8697,-1.8817,-1.8737,-1.8744,-1.8749,-1.8751,-1.9014,-1.9016,0,0,0,0,0,0,-1.8292,-1.8315,-1.8483,-1.8491,-1.838,-1.847,-1.8485,-1.8524,-1.8603,-1.8613,-1.8553,-1.8551,-1.8676,-1.8689,-1.8702,-1.8813,-1.8745,-1.8752,-1.8756,-1.9011,-1.9015,-1.9017,0,0,0,0,0,0,-1.8287,-1.8307,-1.8478,-1.8403,-1.8425,-1.8476,-1.852,-1.8528,-1.8558,-1.8616,-1.8625,-1.8575,-1.8674,-1.8692,-1.8778,-1.8817,-1.8755,-1.8762,-1.9008,-1.9012,-1.9016,-1.9033,0,0,0,0,0,0,-1.8281,-1.8305,-1.8338,-1.8404,-1.8429,-1.855,-1.8523,-1.8532,-1.857,-1.8569,-1.8639,-1.8649,-1.8674,-1.8767,-1.8786,-1.8826,-1.8768,-1.9005,-1.901,-1.9015,-1.9029,-1.9037,-1.9044,0,0,0,0,0,-1.8272,-1.8338,-1.8339,-1.8359,-1.8471,-1.8552,-1.8567,-1.8593,-1.8573,-1.8608,-1.8645,-1.8647,-1.881,-1.8776,-1.8797,-1.884,-1.9003,-1.9009,-1.9014,-1.9026,-1.9035,-1.9043,0,0,0,0,0,0,-1.8277,-1.8347,-1.8349,-1.8438,-1.8489,-1.8553,-1.8597,-1.8602,-1.8661,-1.8657,-1.8689,-1.8705,-1.8791,-1.8824,-1.8785,-1.8931,-1.8905,-1.8915,-1.8906,-1.8916,-1.8923,-1.8913,-1.8774,0,0,0,0,0,-1.8287,-1.8346,-1.8405,-1.8478,-1.8503,-1.8546,-1.8582,-1.8598,-1.8653,-1.8675,-1.8718,-1.8773,-1.8837,-1.8878,-1.894,-1.9034,-1.9051,-1.9075,-1.9082,-1.9087,-1.9096,-1.9151,-1.9162,-1.9036,-1.9036,-1.9036,0,0,-1.8311,-1.8357,-1.8392,-1.848,-1.8521,-1.8583,-1.8564,-1.8629,-1.8676,-1.8685,-1.8769,-1.8803,-1.8867,-1.8958,-1.9,-1.8988,-1.9135,-1.9095,-1.9099,-1.9105,-1.9158,-1.917,-1.918,-1.904,-1.9039,-1.9039,0,0,-1.8386,-1.8426,-1.8491,-1.8533,-1.8596,-1.8624,-1.864,-1.8704,-1.8727,-1.8811,-1.882,-1.8877,-1.8986,-1.9031,-1.9068,-1.9162,-1.9166,-1.9181,-1.9219,-1.9272,-1.9282,-1.9291,-1.9326,-1.9338,-1.919,-1.919,-1.919,0,-1.8408,-1.85,-1.8525,-1.8591,-1.863,-1.864,-1.8708,-1.8748,-1.8828,-1.8856,-1.8841,-1.8979,-1.9022,-1.9125,-1.9148,-1.9177,-1.9198,-1.9173,-1.9278,-1.9287,-1.9296,-1.933,-1.9343,-1.9191,-1.9191,-1.9191,-1.9191,0,-1.8525,-1.8588,-1.8634,-1.871,-1.8755,-1.8821,-1.8859,-1.8901,-1.8914,-1.8944,-1.9032,-1.9084,-1.9157,-1.9183,-1.9196,-1.9288,-1.9279,-1.9271,-1.9245,-1.9309,-1.9342,-1.9355,-1.9193,-1.9193,-1.9192,-1.9192,0,0,-1.8606,-1.8695,-1.8712,-1.8747,-1.8817,-1.8868,-1.8936,-1.9006,-1.9043,-1.9099,-1.9158,-1.925,-1.9244,-1.9286,-1.9305,-1.9351,-1.9424,-1.9337,-1.9339,-1.9353,-1.9531,-1.9538,-1.9552,-1.9427,-1.943,-1.9432,-1.9527,0,-1.8689,-1.8809,-1.8834,-1.8939,-1.8999,-1.901,-1.907,-1.9121,-1.9151,-1.9209,-1.9243,-1.9309,-1.9294,-1.932,-1.9366,-1.9405,-1.9461,-1.9399,-1.9485,-1.9488,-1.9469,-1.9569,-1.9576,-1.9663,-1.9539,-1.9541,-1.9543,0,-1.8803,-1.886,-1.897,-1.9033,-1.906,-1.9112,-1.918,-1.9234,-1.9293,-1.9312,-1.936,-1.9374,-1.9448,-1.9418,-1.9521,-1.9479,-1.9516,-1.9541,-1.9545,-1.9555,-1.952,-1.9583,-1.9691,-1.9704,-1.9563,-1.9561,-1.956,0,-1.8853,-1.8957,-1.9036,-1.9066,-1.9142,-1.9179,-1.9213,-1.927,-1.9311,-1.9371,-1.9398,-1.9466,-1.9504,-1.9558,-1.9591,-1.9565,-1.9693,-1.9665,-1.9713,-1.9712,-1.9739,-1.9737,-1.9856,-1.9761,-1.9761,-1.9761,-1.9761,0,-1.8944,-1.9011,-1.906,-1.9109,-1.9185,-1.9215,-1.9291,-1.9325,-1.9375,-1.9433,-1.9447,-1.9501,-1.9541,-1.9602,-1.9628,-1.9711,-1.9728,-1.9747,-1.9754,-1.9746,-1.9744,-1.9772,-1.9767,-1.9764,-1.9764,-1.9763,-1.9762,0,-1.9013,-1.9048,-1.9135,-1.92,-1.9218,-1.9272,-1.9328,-1.9377,-1.9408,-1.9481,-1.95,-1.955,-1.9622,-1.966,-1.9751,-1.9769,-1.9862,-1.9865,-1.9842,-1.9845,-1.9891,-1.9887,-2.0033,-2.0054,-1.9944,-1.9945,-1.9946,0,-1.9069,-1.9121,-1.9191,-1.923,-1.9264,-1.9326,-1.9368,-1.94,-1.9444,-1.9516,-1.9557,-1.9629,-1.9689,-1.9804,-1.985,-1.992,-1.9925,-1.9971,-1.9936,-1.9928,-1.9928,-1.9925,-1.9931,-1.9978,-1.9979,-1.998,-1.9981,0,-1.9167,-1.9182,-1.9241,-1.9306,-1.9356,-1.941,-1.9463,-1.9494,-1.9536,-1.9584,-1.9657,-1.9704,-1.9796,-1.9869,-1.9942,-1.9979,-1.9988,-1.9991,-2.0006,-2.0,-1.9985,-1.9996,-1.986,-1.9988,-1.9987,-1.9987,-1.9986,-1.9986,-1.9232,-1.928,-1.9336,-1.9402,-1.9445,-1.9495,-1.9545,-1.9582,-1.9643,-1.9719,-1.9735,-1.9813,-1.9873,-1.9972,-2.0011,-2.0075,-2.0065,-2.0087,-2.0093,-2.0098,-2.01,-1.9974,-2.0088,-2.0088,-2.0088,-2.0088,-2.0087,0,-1.9332,-1.9369,-1.9429,-1.9503,-1.9555,-1.9556,-1.9616,-1.966,-1.9728,-1.9782,-1.984,-1.9926,-1.9997,-2.0048,-2.0121,-2.0161,-2.0167,-2.018,-2.0178,-2.0187,-2.0104,-2.0084,-2.0174,-2.0174,-2.0174,-2.0174,-2.0174,-2.0174,-1.939,-1.947,-1.9492,-1.9595,-1.9632,-1.9707,-1.9741,-1.9788,-1.9831,-1.9925,-1.9983,-2.0016,-2.007,-2.0147,-2.0213,-2.0226,-2.0253,-2.0265,-2.028,-2.0201,-2.0192,-2.0183,-2.0165,-2.0271,-2.0271,-2.0357,-2.0358,-2.0359]},{"header":{"parameterUnit":"m.s-1","parameterCategory":1,"la1":30.2991,"la2":30.254,"lo1":-89.0895,"lo2":-89.0444,"dy":0.0017,"dx":0.0017,"nx":28,"ny":28,"refTime":"2024-05-12T21:00:00:Z","depth":0,"parameterNumber":3,"parameterNumberName":"V-component_of_WINDS"},"data":[0,0,0,0,0,0,0,0,0,0,0,0,0,0,0,0,0,0,0,0,0,0,0,0,0,0,0,0,0,0,0,0,0,0,0,0,0,0,0,0,0,0,0,0,0,0,0,0,0,0,0,0,0,0,0,0,0,0,4.688,4.688,0,4.6852,4.6851,4.6851,4.6822,4.6821,4.6821,4.6821,4.6789,4.6788,4.6788,0,0,0,0,0,0,0,0,0,0,0,0,0,4.6907,4.6906,4.688,4.688,4.6879,4.6852,4.6851,4.6851,4.6822,4.6821,4.6821,4.682,4.6789,4.6788,4.6788,0,0,0,0,0,0,0,0,0,0,0,0,0,4.6888,4.6906,4.688,4.6861,4.686,4.6852,4.6851,4.6851,4.6822,4.6821,4.6821,4.682,4.6789,4.6789,4.6788,4.6795,0,0,4.6786,4.6785,0,0,0,0,0,0,0,0,4.6889,4.6887,4.6865,4.6863,4.6861,4.684,4.6849,4.6832,4.6822,4.6836,4.6821,4.682,4.6806,4.6804,4.68,4.6794,4.6792,4.6786,4.6785,4.6785,4.6785,0,0,0,0,0,0,0,4.6891,4.6888,4.6869,4.6864,4.6862,4.6854,4.6851,4.6846,4.6825,4.6835,4.6833,4.683,4.6805,4.6801,4.6799,4.6792,4.6786,4.6785,4.6785,4.6784,4.679,4.6791,0,0,0,0,0,0,4.6895,4.689,4.687,4.6868,4.6874,4.6854,4.685,4.6847,4.6825,4.6821,4.683,4.6829,4.6802,4.68,4.6798,4.6804,4.6785,4.6784,4.6784,4.6789,4.679,4.6791,0,0,0,0,0,0,4.6896,4.6894,4.6871,4.6878,4.6875,4.6854,4.6851,4.6847,4.6842,4.6821,4.6817,4.683,4.6802,4.6799,4.6796,4.6803,4.6784,4.6783,4.6789,4.679,4.679,4.6818,0,0,0,0,0,0,4.6897,4.6894,4.6897,4.6879,4.6874,4.687,4.6851,4.6847,4.6842,4.6839,4.682,4.6816,4.6801,4.6797,4.6795,4.6801,4.6783,4.6788,4.6789,4.679,4.6816,4.682,4.6823,0,0,0,0,0,4.6898,4.6906,4.6897,4.6895,4.6878,4.6871,4.6868,4.6851,4.6842,4.6845,4.6831,4.6817,4.6803,4.6797,4.6795,4.6801,4.6788,4.6789,4.679,4.6815,4.6819,4.6822,0,0,0,0,0,0,4.6924,4.6903,4.6893,4.6896,4.6885,4.6866,4.6869,4.6856,4.6848,4.6846,4.6824,4.682,4.682,4.681,4.6805,4.6807,4.6793,4.6794,4.6813,4.6816,4.6819,4.6821,4.6782,0,0,0,0,0,4.6931,4.6928,4.6909,4.6912,4.6908,4.6889,4.6885,4.6873,4.6862,4.6857,4.6843,4.6832,4.6824,4.682,4.6812,4.6815,4.681,4.6818,4.6821,4.6824,4.6824,4.6824,4.6827,4.6795,4.6795,4.6795,0,0,4.6943,4.6931,4.693,4.6917,4.6908,4.6904,4.6886,4.6883,4.6879,4.6856,4.6853,4.6843,4.6828,4.6828,4.6828,4.682,4.6833,4.6826,4.6828,4.6827,4.6826,4.6829,4.6832,4.6796,4.6796,4.6796,0,0,4.6964,4.6955,4.6957,4.6948,4.6935,4.6922,4.6923,4.6906,4.6898,4.6895,4.6877,4.6873,4.6861,4.6852,4.6845,4.6864,4.6849,4.6862,4.6877,4.6877,4.688,4.6882,4.6887,4.689,4.6863,4.6863,4.6863,0,4.6981,4.6975,4.6959,4.6957,4.6952,4.6932,4.6933,4.6925,4.691,4.6906,4.6898,4.6883,4.6872,4.6869,4.6874,4.687,4.6869,4.6863,4.6881,4.6883,4.6885,4.689,4.6892,4.6864,4.6864,4.6864,4.6864,0,4.6997,4.6993,4.6996,4.6982,4.6977,4.6977,4.696,4.6957,4.6946,4.6934,4.6931,4.6917,4.6906,4.6905,4.6893,4.69,4.6896,4.6885,4.6871,4.689,4.6894,4.6895,4.6866,4.6866,4.6865,4.6865,0,0,4.7032,4.701,4.7011,4.7005,4.6989,4.6985,4.6984,4.6974,4.6972,4.6962,4.6959,4.6951,4.6941,4.6933,4.6921,4.6921,4.6935,4.691,4.6909,4.6914,4.6941,4.6948,4.6951,4.6927,4.6927,4.6927,4.6942,0,4.7049,4.7046,4.7031,4.7032,4.7028,4.701,4.7009,4.6998,4.6988,4.6983,4.6971,4.6964,4.6952,4.6947,4.6947,4.6934,4.694,4.6933,4.6923,4.6923,4.6926,4.6953,4.6961,4.6975,4.6943,4.6944,4.6944,0,4.7068,4.706,4.7061,4.7045,4.7043,4.7042,4.7032,4.7028,4.7016,4.7008,4.7,4.6987,4.6984,4.6972,4.6966,4.6961,4.6957,4.695,4.695,4.6947,4.6933,4.695,4.6979,4.6981,4.6946,4.6946,4.6946,0,4.7092,4.7082,4.7081,4.7076,4.7058,4.7058,4.705,4.7038,4.7033,4.7024,4.702,4.7011,4.7005,4.6998,4.6982,4.6975,4.6978,4.6965,4.697,4.6971,4.697,4.697,4.6998,4.697,4.697,4.697,4.697,0,4.7111,4.7112,4.7092,4.7091,4.7091,4.7075,4.7075,4.7066,4.7055,4.7051,4.7035,4.7032,4.7012,4.7006,4.6993,4.699,4.6988,4.6981,4.6977,4.6982,4.6982,4.6977,4.6975,4.6971,4.697,4.697,4.697,0,4.7138,4.7124,4.7122,4.7105,4.7101,4.7102,4.7088,4.7086,4.7075,4.7071,4.7069,4.7051,4.7044,4.7027,4.7015,4.7007,4.7006,4.7001,4.7011,4.7008,4.7014,4.7013,4.7038,4.704,4.7012,4.7013,4.7013,0,4.7151,4.7151,4.7135,4.7132,4.7125,4.7121,4.7116,4.71,4.7095,4.7082,4.7081,4.7073,4.7065,4.7054,4.7039,4.703,4.7023,4.7032,4.7021,4.7025,4.7021,4.7021,4.7021,4.7034,4.7035,4.7035,4.7035,0,4.7174,4.7168,4.7162,4.7154,4.7149,4.7141,4.7133,4.7131,4.7113,4.7108,4.7101,4.7095,4.7083,4.7075,4.7063,4.7054,4.7041,4.7039,4.704,4.7044,4.7049,4.7045,4.7016,4.7038,4.7038,4.7038,4.7038,4.7038,4.7193,4.7193,4.7181,4.7175,4.7168,4.716,4.7158,4.7147,4.7141,4.7131,4.7122,4.7115,4.7103,4.7086,4.7078,4.7072,4.7066,4.7067,4.7067,4.7067,4.7068,4.7051,4.707,4.707,4.707,4.707,4.707,0,4.7215,4.7207,4.7202,4.7191,4.7186,4.7177,4.7167,4.7163,4.7158,4.7148,4.7141,4.7132,4.7124,4.7109,4.71,4.7098,4.7091,4.7095,4.7095,4.7092,4.7075,4.7075,4.7101,4.7101,4.7101,4.71,4.71,4.71,4.7226,4.7224,4.7216,4.721,4.7202,4.7196,4.7192,4.7185,4.7177,4.7168,4.7162,4.7153,4.714,4.713,4.7121,4.7117,4.7114,4.7119,4.7113,4.7097,4.7094,4.7091,4.7091,4.7119,4.7119,4.7131,4.7131,4.7131]}]]